Location: doobydoo
(53.3403°N, 2.6908°W)
Time: 18:33:53
(UTC+00:00)

ISS - Pass Details

Date: 25 November 2021
Orbit: 413 x 422 km, 51.6° (Epoch: 18 January)

Event Time Altitude Azimuth Distance (km) Brightness Sun altitude
Rises 19:03:22 0° 261° (W) 2,381 1.4 -26.3°
Reaches altitude 10° 19:05:29 10° 259° (WSW) 1,514 0.0 -26.6°
Enters shadow 19:07:01 25° 253° (WSW) 912 -1.4 -26.9°
